Location: Laporte
(40.6264°N, 105.1378°W)
Time: 20:10:49
(UTC+00:00)

Envisat - Pass Details

Date: 20 August 2022
Orbit: 764 x 765 km, 98.2° (Epoch: 27 September)

Event Time Altitude Azimuth Distance (km) Brightness Sun altitude
Rises 11:21:40 0° 14° (NNE) 3,239 6.9 -10.4°
Reaches altitude 10° 11:23:59 10° 16° (NNE) 2,309 6.1 -10.0°
Maximum altitude 11:29:05 78° 103° (ESE) 785 3.2 -9.1°
Drops below altitude 10° 11:34:08 10° 189° (S) 2,291 5.1 -8.3°
Sets 11:36:26 0° 191° (S) 3,213 5.9 -7.9°
